owner,sensor,date,latitude,longitude,air_temperature,qcFlag 
COMPS,ioos:station:USF.COMPS:SHP:1,2019-08-01T00:54:00,30.0600,-84.2910,30.1,11111222 
COMPS,ioos:station:USF.COMPS:SHP:1,2019-08-01T01:54:00,30.0600,-84.2910,29.51,11111222 
COMPS,ioos:station:USF.COMPS:SHP:1,2019-08-01T02:54:00,30.0600,-84.2910,27.81,11111222 
COMPS,ioos:station:USF.COMPS:SHP:1,2019-08-01T03:54:00,30.0600,-84.2910,27.22,11111222 
COMPS,ioos:station:USF.COMPS:SHP:1,2019-08-01T04:54:00,30.0600,-84.2910,26.88,11111222 
COMPS,ioos:station:USF.COMPS:SHP:1,2019-08-01T05:54:00,30.0600,-84.2910,26.8,11111222 
COMPS,ioos:station:USF.COMPS:SHP:1,2019-08-01T06:54:00,30.0600,-84.2910,26.47,11111222 
COMPS,ioos:station:USF.COMPS:SHP:1,2019-08-01T07:54:00,30.0600,-84.2910,26.12,11111222 
COMPS,ioos:station:USF.COMPS:SHP:1,2019-08-01T08:54:00,30.0600,-84.2910,26.03,11111222 
COMPS,ioos:station:USF.COMPS:SHP:1,2019-08-01T09:54:00,30.0600,-84.2910,25.18,11111222 
COMPS,ioos:station:USF.COMPS:SHP:1,2019-08-01T10:54:00,30.0600,-84.2910,25.74,11111222 
COMPS,ioos:station:USF.COMPS:SHP:1,2019-08-01T11:54:00,30.0600,-84.2910,25.7,11111222 
COMPS,ioos:station:USF.COMPS:SHP:1,2019-08-01T12:54:00,30.0600,-84.2910,28.26,11111222 
COMPS,ioos:station:USF.COMPS:SHP:1,2019-08-01T13:54:00,30.0600,-84.2910,29.37,11111222 
COMPS,ioos:station:USF.COMPS:SHP:1,2019-08-01T14:54:00,30.0600,-84.2910,29.64,11111222 
COMPS,ioos:station:USF.COMPS:SHP:1,2019-08-01T15:54:00,30.0600,-84.2910,30.29,11111222 
COMPS,ioos:station:USF.COMPS:SHP:1,2019-08-01T16:54:00,30.0600,-84.2910,30.59,11111222 
COMPS,ioos:station:USF.COMPS:SHP:1,2019-08-01T17:54:00,30.0600,-84.2910,31.28,11111222 
COMPS,ioos:station:USF.COMPS:SHP:1,2019-08-01T18:54:00,30.0600,-84.2910,31.09,11111222 
COMPS,ioos:station:USF.COMPS:SHP:1,2019-08-01T19:54:00,30.0600,-84.2910,30.5,11111222 
COMPS,ioos:station:USF.COMPS:SHP:1,2019-08-01T20:54:00,30.0600,-84.2910,28.89,11111222 
COMPS,ioos:station:USF.COMPS:SHP:1,2019-08-01T21:54:00,30.0600,-84.2910,26.79,11111222 
COMPS,ioos:station:USF.COMPS:SHP:1,2019-08-01T22:54:00,30.0600,-84.2910,29.07,11111222 
COMPS,ioos:station:USF.COMPS:SHP:1,2019-08-01T23:54:00,30.0600,-84.2910,28.75,11111222 
COMPS,ioos:station:USF.COMPS:SHP:1,2019-08-02T00:54:00,30.0600,-84.2910,28.13,11111222 
COMPS,ioos:station:USF.COMPS:SHP:1,2019-08-02T01:54:00,30.0600,-84.2910,28.32,11111222 
COMPS,ioos:station:USF.COMPS:SHP:1,2019-08-02T02:54:00,30.0600,-84.2910,28.15,11111222 
COMPS,ioos:station:USF.COMPS:SHP:1,2019-08-02T03:54:00,30.0600,-84.2910,27.75,11111222 
COMPS,ioos:station:USF.COMPS:SHP:1,2019-08-02T04:54:00,30.0600,-84.2910,27.87,11111222 
COMPS,ioos:station:USF.COMPS:SHP:1,2019-08-02T05:54:00,30.0600,-84.2910,27.96,11111222 
COMPS,ioos:station:USF.COMPS:SHP:1,2019-08-02T06:54:00,30.0600,-84.2910,23.62,11111222 
COMPS,ioos:station:USF.COMPS:SHP:1,2019-08-02T07:54:00,30.0600,-84.2910,23.0,11111222 
COMPS,ioos:station:USF.COMPS:SHP:1,2019-08-02T08:54:00,30.0600,-84.2910,23.05,11111222 
COMPS,ioos:station:USF.COMPS:SHP:1,2019-08-02T09:54:00,30.0600,-84.2910,23.44,11111222 
COMPS,ioos:station:USF.COMPS:SHP:1,2019-08-02T10:54:00,30.0600,-84.2910,25.43,11111222 
COMPS,ioos:station:USF.COMPS:SHP:1,2019-08-02T11:54:00,30.0600,-84.2910,25.83,11111222 
COMPS,ioos:station:USF.COMPS:SHP:1,2019-08-02T12:54:00,30.0600,-84.2910,24.6,11111222 
COMPS,ioos:station:USF.COMPS:SHP:1,2019-08-02T13:54:00,30.0600,-84.2910,26.5,11111222 
COMPS,ioos:station:USF.COMPS:SHP:1,2019-08-02T14:54:00,30.0600,-84.2910,27.49,11111222 
COMPS,ioos:station:USF.COMPS:SHP:1,2019-08-02T15:54:00,30.0600,-84.2910,28.83,11111222 
COMPS,ioos:station:USF.COMPS:SHP:1,2019-08-02T16:54:00,30.0600,-84.2910,29.12,11111222 
COMPS,ioos:station:USF.COMPS:SHP:1,2019-08-02T17:54:00,30.0600,-84.2910,30.07,11111222 
COMPS,ioos:station:USF.COMPS:SHP:1,2019-08-02T18:54:00,30.0600,-84.2910,30.26,11111222 
COMPS,ioos:station:USF.COMPS:SHP:1,2019-08-02T19:54:00,30.0600,-84.2910,28.58,11111222 
COMPS,ioos:station:USF.COMPS:SHP:1,2019-08-02T20:54:00,30.0600,-84.2910,28.95,11111222 
COMPS,ioos:station:USF.COMPS:SHP:1,2019-08-02T21:54:00,30.0600,-84.2910,28.56,11111222 
COMPS,ioos:station:USF.COMPS:SHP:1,2019-08-02T22:54:00,30.0600,-84.2910,29.74,11111222 
COMPS,ioos:station:USF.COMPS:SHP:1,2019-08-02T23:54:00,30.0600,-84.2910,28.98,11111222 
COMPS,ioos:station:USF.COMPS:SHP:1,2019-08-03T00:54:00,30.0600,-84.2910,27.22,11111222 
COMPS,ioos:station:USF.COMPS:SHP:1,2019-08-03T01:54:00,30.0600,-84.2910,26.08,11111222 
COMPS,ioos:station:USF.COMPS:SHP:1,2019-08-03T02:54:00,30.0600,-84.2910,25.75,11111222 
COMPS,ioos:station:USF.COMPS:SHP:1,2019-08-03T03:54:00,30.0600,-84.2910,25.84,11111222 
COMPS,ioos:station:USF.COMPS:SHP:1,2019-08-03T04:54:00,30.0600,-84.2910,26.06,11111222 
COMPS,ioos:station:USF.COMPS:SHP:1,2019-08-03T05:54:00,30.0600,-84.2910,25.62,11111222 
COMPS,ioos:station:USF.COMPS:SHP:1,2019-08-03T06:54:00,30.0600,-84.2910,24.84,11111222 
COMPS,ioos:station:USF.COMPS:SHP:1,2019-08-03T07:54:00,30.0600,-84.2910,23.78,11111222 
COMPS,ioos:station:USF.COMPS:SHP:1,2019-08-03T08:54:00,30.0600,-84.2910,24.11,11111222 
COMPS,ioos:station:USF.COMPS:SHP:1,2019-08-03T09:54:00,30.0600,-84.2910,24.26,11111222 
COMPS,ioos:station:USF.COMPS:SHP:1,2019-08-03T10:54:00,30.0600,-84.2910,24.5,11111222 
COMPS,ioos:station:USF.COMPS:SHP:1,2019-08-03T11:54:00,30.0600,-84.2910,25.64,11111222 
COMPS,ioos:station:USF.COMPS:SHP:1,2019-08-03T12:54:00,30.0600,-84.2910,26.43,11111222 
COMPS,ioos:station:USF.COMPS:SHP:1,2019-08-03T13:54:00,30.0600,-84.2910,27.74,11111222 
COMPS,ioos:station:USF.COMPS:SHP:1,2019-08-03T14:54:00,30.0600,-84.2910,28.62,11111222 
COMPS,ioos:station:USF.COMPS:SHP:1,2019-08-03T15:54:00,30.0600,-84.2910,28.69,11111222 
COMPS,ioos:station:USF.COMPS:SHP:1,2019-08-03T16:54:00,30.0600,-84.2910,28.99,11111222 
COMPS,ioos:station:USF.COMPS:SHP:1,2019-08-03T17:54:00,30.0600,-84.2910,29.36,11111222 
COMPS,ioos:station:USF.COMPS:SHP:1,2019-08-03T18:54:00,30.0600,-84.2910,26.82,11111222 
COMPS,ioos:station:USF.COMPS:SHP:1,2019-08-03T19:54:00,30.0600,-84.2910,27.58,11111222 
COMPS,ioos:station:USF.COMPS:SHP:1,2019-08-03T20:54:00,30.0600,-84.2910,29.62,11111222 
COMPS,ioos:station:USF.COMPS:SHP:1,2019-08-03T21:54:00,30.0600,-84.2910,30.05,11111222 
COMPS,ioos:station:USF.COMPS:SHP:1,2019-08-03T22:54:00,30.0600,-84.2910,30.53,11111222 
COMPS,ioos:station:USF.COMPS:SHP:1,2019-08-03T23:54:00,30.0600,-84.2910,29.54,11111222 
COMPS,ioos:station:USF.COMPS:SHP:1,2019-08-04T00:54:00,30.0600,-84.2910,28.57,11111222 
COMPS,ioos:station:USF.COMPS:SHP:1,2019-08-04T01:54:00,30.0600,-84.2910,25.97,11111222 
COMPS,ioos:station:USF.COMPS:SHP:1,2019-08-04T02:54:00,30.0600,-84.2910,25.22,11111222 
COMPS,ioos:station:USF.COMPS:SHP:1,2019-08-04T03:54:00,30.0600,-84.2910,24.55,11111222 
COMPS,ioos:station:USF.COMPS:SHP:1,2019-08-04T04:54:00,30.0600,-84.2910,24.39,11111222 
COMPS,ioos:station:USF.COMPS:SHP:1,2019-08-04T05:54:00,30.0600,-84.2910,24.37,11111222 
COMPS,ioos:station:USF.COMPS:SHP:1,2019-08-04T06:54:00,30.0600,-84.2910,23.76,11111222 
COMPS,ioos:station:USF.COMPS:SHP:1,2019-08-04T07:54:00,30.0600,-84.2910,23.52,11111222 
COMPS,ioos:station:USF.COMPS:SHP:1,2019-08-04T08:54:00,30.0600,-84.2910,23.48,11111222 
COMPS,ioos:station:USF.COMPS:SHP:1,2019-08-04T09:54:00,30.0600,-84.2910,22.96,11111222 
COMPS,ioos:station:USF.COMPS:SHP:1,2019-08-04T10:54:00,30.0600,-84.2910,22.38,11111222 
COMPS,ioos:station:USF.COMPS:SHP:1,2019-08-04T11:54:00,30.0600,-84.2910,22.86,11111222 
COMPS,ioos:station:USF.COMPS:SHP:1,2019-08-04T12:54:00,30.0600,-84.2910,24.98,11111222 
COMPS,ioos:station:USF.COMPS:SHP:1,2019-08-04T13:54:00,30.0600,-84.2910,26.9,11111222 
COMPS,ioos:station:USF.COMPS:SHP:1,2019-08-04T14:54:00,30.0600,-84.2910,28.6,11111222 
COMPS,ioos:station:USF.COMPS:SHP:1,2019-08-04T15:54:00,30.0600,-84.2910,29.97,11111222 
COMPS,ioos:station:USF.COMPS:SHP:1,2019-08-04T16:54:00,30.0600,-84.2910,31.1,11111222 
COMPS,ioos:station:USF.COMPS:SHP:1,2019-08-04T17:54:00,30.0600,-84.2910,31.15,11111222 
COMPS,ioos:station:USF.COMPS:SHP:1,2019-08-04T18:54:00,30.0600,-84.2910,30.29,11111222 
COMPS,ioos:station:USF.COMPS:SHP:1,2019-08-04T19:54:00,30.0600,-84.2910,30.63,11111222 
COMPS,ioos:station:USF.COMPS:SHP:1,2019-08-04T20:54:00,30.0600,-84.2910,30.67,11111222 
COMPS,ioos:station:USF.COMPS:SHP:1,2019-08-04T21:54:00,30.0600,-84.2910,31.58,11111222 
COMPS,ioos:station:USF.COMPS:SHP:1,2019-08-04T22:54:00,30.0600,-84.2910,30.79,11111222 
COMPS,ioos:station:USF.COMPS:SHP:1,2019-08-04T23:54:00,30.0600,-84.2910,30.15,11111222 
COMPS,ioos:station:USF.COMPS:SHP:1,2019-08-05T00:54:00,30.0600,-84.2910,30.2,11111222 
COMPS,ioos:station:USF.COMPS:SHP:1,2019-08-05T01:54:00,30.0600,-84.2910,29.81,11111222 
COMPS,ioos:station:USF.COMPS:SHP:1,2019-08-05T02:54:00,30.0600,-84.2910,28.7,11111222 
COMPS,ioos:station:USF.COMPS:SHP:1,2019-08-05T03:54:00,30.0600,-84.2910,28.21,11111222 
COMPS,ioos:station:USF.COMPS:SHP:1,2019-08-05T04:54:00,30.0600,-84.2910,27.4,11111222 
COMPS,ioos:station:USF.COMPS:SHP:1,2019-08-05T05:54:00,30.0600,-84.2910,26.45,11111222 
COMPS,ioos:station:USF.COMPS:SHP:1,2019-08-05T06:54:00,30.0600,-84.2910,25.99,11111222 
COMPS,ioos:station:USF.COMPS:SHP:1,2019-08-05T07:54:00,30.0600,-84.2910,25.94,11111222 
COMPS,ioos:station:USF.COMPS:SHP:1,2019-08-05T08:54:00,30.0600,-84.2910,25.36,11111222 
COMPS,ioos:station:USF.COMPS:SHP:1,2019-08-05T09:54:00,30.0600,-84.2910,25.56,11111222 
COMPS,ioos:station:USF.COMPS:SHP:1,2019-08-05T10:54:00,30.0600,-84.2910,25.12,11111222 
COMPS,ioos:station:USF.COMPS:SHP:1,2019-08-05T11:54:00,30.0600,-84.2910,25.84,11111222 
COMPS,ioos:station:USF.COMPS:SHP:1,2019-08-05T12:54:00,30.0600,-84.2910,27.57,11111222 
COMPS,ioos:station:USF.COMPS:SHP:1,2019-08-05T13:54:00,30.0600,-84.2910,28.14,11111222 
COMPS,ioos:station:USF.COMPS:SHP:1,2019-08-05T14:54:00,30.0600,-84.2910,29.27,11111222 
COMPS,ioos:station:USF.COMPS:SHP:1,2019-08-05T15:54:00,30.0600,-84.2910,30.0,11111222 
COMPS,ioos:station:USF.COMPS:SHP:1,2019-08-05T16:54:00,30.0600,-84.2910,30.02,11111222 
COMPS,ioos:station:USF.COMPS:SHP:1,2019-08-05T17:54:00,30.0600,-84.2910,30.22,11111222 
COMPS,ioos:station:USF.COMPS:SHP:1,2019-08-05T18:54:00,30.0600,-84.2910,30.04,11111222 
COMPS,ioos:station:USF.COMPS:SHP:1,2019-08-05T19:54:00,30.0600,-84.2910,29.02,11111222 
COMPS,ioos:station:USF.COMPS:SHP:1,2019-08-05T20:54:00,30.0600,-84.2910,29.14,11111222 
COMPS,ioos:station:USF.COMPS:SHP:1,2019-08-05T21:54:00,30.0600,-84.2910,30.14,11111222 
COMPS,ioos:station:USF.COMPS:SHP:1,2019-08-05T22:54:00,30.0600,-84.2910,29.73,11111222 
COMPS,ioos:station:USF.COMPS:SHP:1,2019-08-05T23:54:00,30.0600,-84.2910,29.18,11111222 
COMPS,ioos:station:USF.COMPS:SHP:1,2019-08-06T00:54:00,30.0600,-84.2910,28.59,11111222 
COMPS,ioos:station:USF.COMPS:SHP:1,2019-08-06T01:54:00,30.0600,-84.2910,28.11,11111222 
COMPS,ioos:station:USF.COMPS:SHP:1,2019-08-06T02:54:00,30.0600,-84.2910,27.86,11111222 
COMPS,ioos:station:USF.COMPS:SHP:1,2019-08-06T03:54:00,30.0600,-84.2910,27.57,11111222 
COMPS,ioos:station:USF.COMPS:SHP:1,2019-08-06T04:54:00,30.0600,-84.2910,26.92,11111222 
COMPS,ioos:station:USF.COMPS:SHP:1,2019-08-06T05:54:00,30.0600,-84.2910,26.34,11111222 
COMPS,ioos:station:USF.COMPS:SHP:1,2019-08-06T06:54:00,30.0600,-84.2910,26.12,11111222 
COMPS,ioos:station:USF.COMPS:SHP:1,2019-08-06T07:54:00,30.0600,-84.2910,26.37,11111222 
COMPS,ioos:station:USF.COMPS:SHP:1,2019-08-06T08:54:00,30.0600,-84.2910,25.68,11111222 
COMPS,ioos:station:USF.COMPS:SHP:1,2019-08-06T09:54:00,30.0600,-84.2910,25.85,11111222 
COMPS,ioos:station:USF.COMPS:SHP:1,2019-08-06T10:54:00,30.0600,-84.2910,25.91,11111222 
COMPS,ioos:station:USF.COMPS:SHP:1,2019-08-06T11:54:00,30.0600,-84.2910,25.58,11111222 
COMPS,ioos:station:USF.COMPS:SHP:1,2019-08-06T12:54:00,30.0600,-84.2910,27.14,11111222 
COMPS,ioos:station:USF.COMPS:SHP:1,2019-08-06T13:54:00,30.0600,-84.2910,28.5,11111222 
COMPS,ioos:station:USF.COMPS:SHP:1,2019-08-06T14:54:00,30.0600,-84.2910,29.04,11111222 
COMPS,ioos:station:USF.COMPS:SHP:1,2019-08-06T15:54:00,30.0600,-84.2910,29.52,11111222 
COMPS,ioos:station:USF.COMPS:SHP:1,2019-08-06T16:54:00,30.0600,-84.2910,30.33,11111222 
COMPS,ioos:station:USF.COMPS:SHP:1,2019-08-06T17:54:00,30.0600,-84.2910,28.15,11111222 
COMPS,ioos:station:USF.COMPS:SHP:1,2019-08-06T18:54:00,30.0600,-84.2910,26.88,11111222 
COMPS,ioos:station:USF.COMPS:SHP:1,2019-08-06T19:54:00,30.0600,-84.2910,27.34,11111222 
COMPS,ioos:station:USF.COMPS:SHP:1,2019-08-06T20:54:00,30.0600,-84.2910,29.23,11111222 
COMPS,ioos:station:USF.COMPS:SHP:1,2019-08-06T21:54:00,30.0600,-84.2910,29.78,11111222 
COMPS,ioos:station:USF.COMPS:SHP:1,2019-08-06T22:54:00,30.0600,-84.2910,29.74,11111222 
COMPS,ioos:station:USF.COMPS:SHP:1,2019-08-06T23:54:00,30.0600,-84.2910,29.33,11111222 
COMPS,ioos:station:USF.COMPS:SHP:1,2019-08-07T00:54:00,30.0600,-84.2910,28.12,11111222 
COMPS,ioos:station:USF.COMPS:SHP:1,2019-08-07T01:54:00,30.0600,-84.2910,27.82,11111222 
COMPS,ioos:station:USF.COMPS:SHP:1,2019-08-07T02:54:00,30.0600,-84.2910,27.43,11111222 
COMPS,ioos:station:USF.COMPS:SHP:1,2019-08-07T03:54:00,30.0600,-84.2910,27.55,11111222 
COMPS,ioos:station:USF.COMPS:SHP:1,2019-08-07T04:54:00,30.0600,-84.2910,27.63,11111222 
COMPS,ioos:station:USF.COMPS:SHP:1,2019-08-07T05:54:00,30.0600,-84.2910,27.6,11111222 
COMPS,ioos:station:USF.COMPS:SHP:1,2019-08-07T06:54:00,30.0600,-84.2910,27.82,11111222 
COMPS,ioos:station:USF.COMPS:SHP:1,2019-08-07T07:54:00,30.0600,-84.2910,27.39,11111222 
COMPS,ioos:station:USF.COMPS:SHP:1,2019-08-07T08:54:00,30.0600,-84.2910,27.42,11111222 
COMPS,ioos:station:USF.COMPS:SHP:1,2019-08-07T09:54:00,30.0600,-84.2910,27.49,11111222 
COMPS,ioos:station:USF.COMPS:SHP:1,2019-08-07T10:54:00,30.0600,-84.2910,27.39,11111222 
COMPS,ioos:station:USF.COMPS:SHP:1,2019-08-07T11:54:00,30.0600,-84.2910,27.0,11111222 
COMPS,ioos:station:USF.COMPS:SHP:1,2019-08-07T12:54:00,30.0600,-84.2910,27.41,11111222 
COMPS,ioos:station:USF.COMPS:SHP:1,2019-08-07T13:54:00,30.0600,-84.2910,27.99,11111222 
COMPS,ioos:station:USF.COMPS:SHP:1,2019-08-07T14:54:00,30.0600,-84.2910,29.26,11111222 
COMPS,ioos:station:USF.COMPS:SHP:1,2019-08-07T15:54:00,30.0600,-84.2910,31.0,11111222 
COMPS,ioos:station:USF.COMPS:SHP:1,2019-08-07T16:54:00,30.0600,-84.2910,31.61,11111222 
COMPS,ioos:station:USF.COMPS:SHP:1,2019-08-07T17:54:00,30.0600,-84.2910,29.85,11111222 
COMPS,ioos:station:USF.COMPS:SHP:1,2019-08-07T18:54:00,30.0600,-84.2910,30.37,11111222 
COMPS,ioos:station:USF.COMPS:SHP:1,2019-08-07T19:54:00,30.0600,-84.2910,29.69,11111222 
COMPS,ioos:station:USF.COMPS:SHP:1,2019-08-07T20:54:00,30.0600,-84.2910,30.05,11111222 
COMPS,ioos:station:USF.COMPS:SHP:1,2019-08-07T21:54:00,30.0600,-84.2910,25.11,11111222 
COMPS,ioos:station:USF.COMPS:SHP:1,2019-08-07T22:54:00,30.0600,-84.2910,25.95,11111222 
COMPS,ioos:station:USF.COMPS:SHP:1,2019-08-07T23:54:00,30.0600,-84.2910,26.95,11111222 
COMPS,ioos:station:USF.COMPS:SHP:1,2019-08-08T00:54:00,30.0600,-84.2910,25.14,11111222 
COMPS,ioos:station:USF.COMPS:SHP:1,2019-08-08T01:54:00,30.0600,-84.2910,26.29,11111222 
COMPS,ioos:station:USF.COMPS:SHP:1,2019-08-08T02:54:00,30.0600,-84.2910,27.12,11111222 
COMPS,ioos:station:USF.COMPS:SHP:1,2019-08-08T05:54:00,30.0600,-84.2910,27.35,11111222 
COMPS,ioos:station:USF.COMPS:SHP:1,2019-08-08T06:54:00,30.0600,-84.2910,27.61,11111222 
COMPS,ioos:station:USF.COMPS:SHP:1,2019-08-08T07:54:00,30.0600,-84.2910,27.58,11111222 
COMPS,ioos:station:USF.COMPS:SHP:1,2019-08-08T08:54:00,30.0600,-84.2910,27.34,11111222 
COMPS,ioos:station:USF.COMPS:SHP:1,2019-08-08T09:54:00,30.0600,-84.2910,27.41,11111222 
COMPS,ioos:station:USF.COMPS:SHP:1,2019-08-08T10:54:00,30.0600,-84.2910,27.32,11111222 
COMPS,ioos:station:USF.COMPS:SHP:1,2019-08-08T11:54:00,30.0600,-84.2910,27.54,11111222 
COMPS,ioos:station:USF.COMPS:SHP:1,2019-08-08T12:54:00,30.0600,-84.2910,28.12,11111222 
COMPS,ioos:station:USF.COMPS:SHP:1,2019-08-08T13:54:00,30.0600,-84.2910,29.2,11111222 
COMPS,ioos:station:USF.COMPS:SHP:1,2019-08-08T14:54:00,30.0600,-84.2910,30.82,11111222 
COMPS,ioos:station:USF.COMPS:SHP:1,2019-08-08T15:54:00,30.0600,-84.2910,31.29,11111222 
COMPS,ioos:station:USF.COMPS:SHP:1,2019-08-08T16:54:00,30.0600,-84.2910,32.34,11111222 
COMPS,ioos:station:USF.COMPS:SHP:1,2019-08-08T17:54:00,30.0600,-84.2910,30.3,11111222 
COMPS,ioos:station:USF.COMPS:SHP:1,2019-08-08T18:54:00,30.0600,-84.2910,26.09,11111222 
COMPS,ioos:station:USF.COMPS:SHP:1,2019-08-08T19:54:00,30.0600,-84.2910,28.47,11111222 
COMPS,ioos:station:USF.COMPS:SHP:1,2019-08-08T20:54:00,30.0600,-84.2910,28.62,11111222 
COMPS,ioos:station:USF.COMPS:SHP:1,2019-08-08T21:54:00,30.0600,-84.2910,28.89,11111222 
COMPS,ioos:station:USF.COMPS:SHP:1,2019-08-08T22:54:00,30.0600,-84.2910,29.12,11111222 
COMPS,ioos:station:USF.COMPS:SHP:1,2019-08-08T23:54:00,30.0600,-84.2910,29.03,11111222 
COMPS,ioos:station:USF.COMPS:SHP:1,2019-08-09T00:54:00,30.0600,-84.2910,28.84,11111222 
COMPS,ioos:station:USF.COMPS:SHP:1,2019-08-09T01:54:00,30.0600,-84.2910,28.77,11111222 
COMPS,ioos:station:USF.COMPS:SHP:1,2019-08-09T02:54:00,30.0600,-84.2910,28.52,11111222 
COMPS,ioos:station:USF.COMPS:SHP:1,2019-08-09T03:54:00,30.0600,-84.2910,28.24,11111222 
COMPS,ioos:station:USF.COMPS:SHP:1,2019-08-09T04:54:00,30.0600,-84.2910,27.79,11111222 
COMPS,ioos:station:USF.COMPS:SHP:1,2019-08-09T05:54:00,30.0600,-84.2910,27.95,11111222 
COMPS,ioos:station:USF.COMPS:SHP:1,2019-08-09T06:54:00,30.0600,-84.2910,27.9,11111222 
COMPS,ioos:station:USF.COMPS:SHP:1,2019-08-09T07:54:00,30.0600,-84.2910,27.94,11111222 
COMPS,ioos:station:USF.COMPS:SHP:1,2019-08-09T08:54:00,30.0600,-84.2910,26.36,11111222 
COMPS,ioos:station:USF.COMPS:SHP:1,2019-08-09T09:54:00,30.0600,-84.2910,26.37,11111222 
COMPS,ioos:station:USF.COMPS:SHP:1,2019-08-09T10:54:00,30.0600,-84.2910,25.95,11111222 
COMPS,ioos:station:USF.COMPS:SHP:1,2019-08-09T11:54:00,30.0600,-84.2910,25.93,11111222 
COMPS,ioos:station:USF.COMPS:SHP:1,2019-08-09T12:54:00,30.0600,-84.2910,26.92,11111222 
COMPS,ioos:station:USF.COMPS:SHP:1,2019-08-09T13:54:00,30.0600,-84.2910,28.75,11111222 
COMPS,ioos:station:USF.COMPS:SHP:1,2019-08-09T14:54:00,30.0600,-84.2910,29.97,11111222 
COMPS,ioos:station:USF.COMPS:SHP:1,2019-08-09T15:54:00,30.0600,-84.2910,31.6,11111222 
COMPS,ioos:station:USF.COMPS:SHP:1,2019-08-09T16:54:00,30.0600,-84.2910,29.61,11111222 
COMPS,ioos:station:USF.COMPS:SHP:1,2019-08-09T17:54:00,30.0600,-84.2910,29.56,11111222 
COMPS,ioos:station:USF.COMPS:SHP:1,2019-08-09T18:54:00,30.0600,-84.2910,31.32,11111222 
COMPS,ioos:station:USF.COMPS:SHP:1,2019-08-09T19:54:00,30.0600,-84.2910,27.89,11111222 
COMPS,ioos:station:USF.COMPS:SHP:1,2019-08-09T20:54:00,30.0600,-84.2910,28.98,11111222 
COMPS,ioos:station:USF.COMPS:SHP:1,2019-08-09T21:54:00,30.0600,-84.2910,30.61,11111222 
COMPS,ioos:station:USF.COMPS:SHP:1,2019-08-09T22:54:00,30.0600,-84.2910,30.51,11111222 
COMPS,ioos:station:USF.COMPS:SHP:1,2019-08-09T23:54:00,30.0600,-84.2910,30.6,11111222 
COMPS,ioos:station:USF.COMPS:SHP:1,2019-08-10T00:54:00,30.0600,-84.2910,30.15,11111222 
COMPS,ioos:station:USF.COMPS:SHP:1,2019-08-10T01:54:00,30.0600,-84.2910,29.5,11111222 
COMPS,ioos:station:USF.COMPS:SHP:1,2019-08-10T03:54:00,30.0600,-84.2910,28.52,11111222 
COMPS,ioos:station:USF.COMPS:SHP:1,2019-08-10T04:54:00,30.0600,-84.2910,27.82,11111222 
COMPS,ioos:station:USF.COMPS:SHP:1,2019-08-10T05:54:00,30.0600,-84.2910,27.47,11111222 
COMPS,ioos:station:USF.COMPS:SHP:1,2019-08-10T06:54:00,30.0600,-84.2910,27.57,11111222 
COMPS,ioos:station:USF.COMPS:SHP:1,2019-08-10T07:54:00,30.0600,-84.2910,27.18,11111222 
COMPS,ioos:station:USF.COMPS:SHP:1,2019-08-10T08:54:00,30.0600,-84.2910,27.29,11111222 
COMPS,ioos:station:USF.COMPS:SHP:1,2019-08-10T09:54:00,30.0600,-84.2910,27.24,11111222 
COMPS,ioos:station:USF.COMPS:SHP:1,2019-08-10T10:54:00,30.0600,-84.2910,27.08,11111222 
COMPS,ioos:station:USF.COMPS:SHP:1,2019-08-10T11:54:00,30.0600,-84.2910,27.1,11111222 
COMPS,ioos:station:USF.COMPS:SHP:1,2019-08-10T12:54:00,30.0600,-84.2910,27.5,11111222 
COMPS,ioos:station:USF.COMPS:SHP:1,2019-08-10T13:54:00,30.0600,-84.2910,28.69,11111222 
COMPS,ioos:station:USF.COMPS:SHP:1,2019-08-10T14:54:00,30.0600,-84.2910,29.31,11111222 
COMPS,ioos:station:USF.COMPS:SHP:1,2019-08-10T15:54:00,30.0600,-84.2910,30.68,11111222 
COMPS,ioos:station:USF.COMPS:SHP:1,2019-08-10T16:54:00,30.0600,-84.2910,31.34,11111222 
COMPS,ioos:station:USF.COMPS:SHP:1,2019-08-10T17:54:00,30.0600,-84.2910,31.8,11111222 
COMPS,ioos:station:USF.COMPS:SHP:1,2019-08-10T18:54:00,30.0600,-84.2910,32.92,11111222 
COMPS,ioos:station:USF.COMPS:SHP:1,2019-08-10T19:54:00,30.0600,-84.2910,31.44,11111222 
COMPS,ioos:station:USF.COMPS:SHP:1,2019-08-10T20:54:00,30.0600,-84.2910,30.82,11111222 
COMPS,ioos:station:USF.COMPS:SHP:1,2019-08-10T21:54:00,30.0600,-84.2910,30.84,11111222 
COMPS,ioos:station:USF.COMPS:SHP:1,2019-08-10T22:54:00,30.0600,-84.2910,30.69,11111222 
COMPS,ioos:station:USF.COMPS:SHP:1,2019-08-10T23:54:00,30.0600,-84.2910,27.17,11111222 
COMPS,ioos:station:USF.COMPS:SHP:1,2019-08-11T00:54:00,30.0600,-84.2910,26.43,11111222 
COMPS,ioos:station:USF.COMPS:SHP:1,2019-08-11T01:54:00,30.0600,-84.2910,26.98,11111222 
COMPS,ioos:station:USF.COMPS:SHP:1,2019-08-11T02:54:00,30.0600,-84.2910,27.89,11111222 
COMPS,ioos:station:USF.COMPS:SHP:1,2019-08-11T03:54:00,30.0600,-84.2910,27.2,11111222 
COMPS,ioos:station:USF.COMPS:SHP:1,2019-08-11T04:54:00,30.0600,-84.2910,27.11,11111222 
COMPS,ioos:station:USF.COMPS:SHP:1,2019-08-11T05:54:00,30.0600,-84.2910,27.34,11111222 
COMPS,ioos:station:USF.COMPS:SHP:1,2019-08-11T06:54:00,30.0600,-84.2910,27.46,11111222 
COMPS,ioos:station:USF.COMPS:SHP:1,2019-08-11T07:54:00,30.0600,-84.2910,26.78,11111222 
COMPS,ioos:station:USF.COMPS:SHP:1,2019-08-11T08:54:00,30.0600,-84.2910,27.43,11111222 
COMPS,ioos:station:USF.COMPS:SHP:1,2019-08-11T09:54:00,30.0600,-84.2910,26.98,11111222 
COMPS,ioos:station:USF.COMPS:SHP:1,2019-08-11T10:54:00,30.0600,-84.2910,26.47,11111222 
COMPS,ioos:station:USF.COMPS:SHP:1,2019-08-11T11:54:00,30.0600,-84.2910,26.14,11111222 
COMPS,ioos:station:USF.COMPS:SHP:1,2019-08-11T12:54:00,30.0600,-84.2910,26.75,11111222 
COMPS,ioos:station:USF.COMPS:SHP:1,2019-08-11T13:54:00,30.0600,-84.2910,27.73,11111222 
COMPS,ioos:station:USF.COMPS:SHP:1,2019-08-11T14:54:00,30.0600,-84.2910,29.26,11111222 
COMPS,ioos:station:USF.COMPS:SHP:1,2019-08-11T15:54:00,30.0600,-84.2910,30.49,11111222 
COMPS,ioos:station:USF.COMPS:SHP:1,2019-08-11T16:54:00,30.0600,-84.2910,31.61,11111222 
COMPS,ioos:station:USF.COMPS:SHP:1,2019-08-11T17:54:00,30.0600,-84.2910,31.66,11111222 
COMPS,ioos:station:USF.COMPS:SHP:1,2019-08-11T18:54:00,30.0600,-84.2910,32.09,11111222 
COMPS,ioos:station:USF.COMPS:SHP:1,2019-08-11T19:54:00,30.0600,-84.2910,32.57,11111222 
COMPS,ioos:station:USF.COMPS:SHP:1,2019-08-11T20:54:00,30.0600,-84.2910,32.5,11111222 
COMPS,ioos:station:USF.COMPS:SHP:1,2019-08-11T21:54:00,30.0600,-84.2910,32.91,11111222 
COMPS,ioos:station:USF.COMPS:SHP:1,2019-08-11T22:54:00,30.0600,-84.2910,32.44,11111222 
COMPS,ioos:station:USF.COMPS:SHP:1,2019-08-12T05:54:00,30.0600,-84.2910,27.85,11111222 
COMPS,ioos:station:USF.COMPS:SHP:1,2019-08-12T08:54:00,30.0600,-84.2910,26.76,11111222 
COMPS,ioos:station:USF.COMPS:SHP:1,2019-08-12T11:54:00,30.0600,-84.2910,26.86,11111222 
COMPS,ioos:station:USF.COMPS:SHP:1,2019-08-12T12:54:00,30.0600,-84.2910,27.67,11111222 
COMPS,ioos:station:USF.COMPS:SHP:1,2019-08-12T13:54:00,30.0600,-84.2910,30.54,11111222 
COMPS,ioos:station:USF.COMPS:SHP:1,2019-08-12T14:54:00,30.0600,-84.2910,31.75,11111222 
COMPS,ioos:station:USF.COMPS:SHP:1,2019-08-12T15:54:00,30.0600,-84.2910,31.11,11111222 
COMPS,ioos:station:USF.COMPS:SHP:1,2019-08-12T16:54:00,30.0600,-84.2910,32.32,11111222 
COMPS,ioos:station:USF.COMPS:SHP:1,2019-08-12T17:54:00,30.0600,-84.2910,31.84,11111222 
COMPS,ioos:station:USF.COMPS:SHP:1,2019-08-12T18:54:00,30.0600,-84.2910,31.43,11111222 
COMPS,ioos:station:USF.COMPS:SHP:1,2019-08-12T19:54:00,30.0600,-84.2910,30.91,11111222 
COMPS,ioos:station:USF.COMPS:SHP:1,2019-08-12T20:54:00,30.0600,-84.2910,31.5,11111222 